Home   Weather   Winnipeg   Past weeks

Flag for Canada Past Weather in Winnipeg, Manitoba, Canada — Yesterday and Last 2 Weeks

Now
22 °F

Cold.


Feels Like: 17 °F
Forecast: 22 / 33 °F
Wind: 3 mph from Southwest

Location: Winnipeg The Forks Man

Current Time: Jan 18, 2017 at 6:31:17 am

Latest Report: Jan 18, 2017 at 5:00 am


Visibility: N/A

Pressure: 29.64 "Hg

Humidity: 83%

Dew Point: 17 °F

Location of WinnipegLocation

Past Weather in Winnipeg — Graph

°F

Winnipeg Temperature Yesterday

Maximum temperature yesterday: 26 °F (at 2:00 pm)
Minimum temperature yesterday: 8 °F (at 2:00 am)
Average temperature yesterday: 17 °F

High & Low Weather Summary for the Past Weeks

 TemperatureHumidityPressure
High26 °F (Jan 17, 2:00 pm)87% (Jan 17, 8:00 am)30.72 "Hg (Jan 17, 8:00 am)
Low-23 °F (Jan 13, 6:00 am)56% (Jan 11, 3:00 pm)29.59 "Hg (Jan 18, 2:00 am)
Average0 °F73%30.15 "Hg
* Reported Jan 3 5:00 am — Jan 18 5:00 am, Winnipeg, Weather by CustomWeather, © 2017

Note: Actual official high and low records may vary slightly from our data, if they occured in-between our weather recording intervals... More about our weather records

Advertising

Winnipeg Weather History for the Previous 24 Hours

Scroll right to see more
 ConditionsComfort  
Time TempWeatherWind HumidityBarometerVisibility
5:00 am
Wed, Jan 18
22 °FCold.3 mph83%29.64 "HgN/A
4:00 am22 °FCold.5 mph82%29.62 "HgN/A
3:00 am22 °FCold.5 mph80%29.62 "HgN/A
2:00 am23 °FCold.3 mph79%29.59 "HgN/A
1:00 am23 °FCold.6 mph78%29.61 "HgN/A
12:00 am25 °FCold.7 mph75%29.60 "HgN/A
11:00 pm
Tue, Jan 17
24 °FCold.7 mph76%29.60 "HgN/A
10:00 pm23 °FCold.6 mph77%29.61 "HgN/A
9:00 pm23 °FCold.5 mph75%29.62 "HgN/A
8:00 pm23 °FCold.6 mph76%29.62 "HgN/A
7:00 pm23 °FCold.8 mph76%29.65 "HgN/A
6:00 pm22 °FCold.9 mph76%29.67 "HgN/A
5:00 pm26 °FChilly.7 mph70%29.65 "HgN/A
4:00 pm26 °FChilly.8 mph69%29.68 "HgN/A
3:00 pm26 °FChilly.6 mph69%29.70 "HgN/A
2:00 pm26 °FChilly.7 mph68%29.73 "HgN/A
1:00 pm26 °FChilly.5 mph68%29.76 "HgN/A
12:00 pm23 °FCold.5 mph72%29.80 "HgN/A
11:00 am21 °FCold.3 mph77%29.83 "HgN/A
10:00 am17 °FCold.5 mph85%29.86 "HgN/A
9:00 am13 °FCold.5 mph86%29.90 "HgN/A
8:00 am9 °FFrigid.3 mph87%29.90 "HgN/A
7:00 am8 °FFrigid.1 mph84%29.92 "HgN/A
6:00 am9 °FFrigid.3 mph85%29.95 "HgN/A
Weather by CustomWeather, © 2017

See weather overviewHow to use our weather pages